Flag for U.S.A. Weather past 2 weeks in Bismarck, North Dakota, U.S.A.

Now
30 °F

Overcast.


Feels Like: 17 °F
Forecast: 27 / 38 °F
Wind: 21 mph from East

Location: Bismarck Municipal Airport


UV Index: 0 (Low)

Visibility: 10 mi


Pressure: 29.83 "Hg

Humidity: 56%

Dew point: 16 °F

Location of BismarckLocation

Historic Weather in Bismarck

°F

Bismarck temperature yesterday

Maximum temperature yesterday: 45 °F (at 5:52 PM)
Minimum temperature yesterday: 16 °F (at 12:52 AM)
Average temperature yesterday: 29 °F

Past Weeks' High & Low Weather Summary

 TemperatureHumidityPressure
High78 °F (Apr 9, 2:52 PM)96% (Apr 3, 6:52 AM)30.34 "Hg (Apr 3, 6:52 AM)
Low6 °F (Apr 1, 7:52 AM)20% (Apr 9, 2:52 PM)29.51 "Hg (Apr 9, 3:52 PM)
Average36 °F63%30.00 "Hg
* Reported Apr 1 1:52 AM — Apr 16 1:52 AM, Bismarck, Weather by CustomWeather, © 2014

Note: Actual official high and low records may vary slightly from our data, if they occured in-between our weather recording intervals... More about our weather records

Advertising

Historic Weather Conditions — Data for Previous 24 hours

 ConditionsComfort  
Time TempWeatherWind HumidityBarometerVisibility
1:52 AM
Apr 16
30 °FOvercast.21 mph56%29.83 "Hg10 mi
12:52 AM29 °FClear.18 mph64%29.82 "Hg10 mi
11:52 PM
Apr 15
29 °FClear.20 mph66%29.83 "Hg10 mi
10:52 PM30 °FClear.22 mph61%29.83 "Hg10 mi
9:52 PM32 °FClear.23 mph54%29.83 "Hg10 mi
8:52 PM34 °FOvercast.21 mph50%29.80 "Hg10 mi
7:52 PM39 °FSunny.23 mph43%29.78 "Hg10 mi
5:52 PM45 °FSunny.22 mph37%29.77 "Hg10 mi
4:52 PM44 °FScattered clouds.22 mph37%29.80 "Hg10 mi
3:52 PM43 °FOvercast.24 mph38%29.82 "Hg10 mi
2:52 PM42 °FOvercast.23 mph36%29.84 "Hg10 mi
1:52 PM39 °FOvercast.21 mph39%29.87 "Hg10 mi
12:52 PM38 °FOvercast.21 mph39%29.91 "Hg10 mi
11:52 AM34 °FOvercast.21 mph42%29.96 "Hg10 mi
10:52 AM31 °FOvercast.16 mph47%29.99 "Hg10 mi
9:52 AM28 °FMostly cloudy.17 mph56%30.01 "Hg10 mi
8:52 AM24 °FOvercast.16 mph68%30.06 "Hg10 mi
7:52 AM21 °FOvercast.13 mph74%30.08 "Hg10 mi
6:52 AM18 °FClear.8 mph74%30.11 "Hg10 mi
5:52 AM16 °FClear.7 mph77%30.13 "Hg10 mi
4:52 AM17 °FClear.6 mph74%30.14 "Hg10 mi
3:52 AM17 °FPassing clouds.3 mph76%30.17 "Hg10 mi
2:52 AM18 °FClear.3 mph80%30.18 "Hg10 mi
Weather by CustomWeather, © 2014

See weather overview